DW1174 Weather Reports


time (UTC)temp
C
wind
direction
speed
KPH
gust
KPH
rain 1hr
cm
rain 24hr
cm
rain mn
cm
humidity
%
barometer
mb
20260507015443 7 337 0.0 0.0 0.00 1.40 0.66 79 1011.5
20260507014934 7 337 0.0 0.0 0.00 1.40 0.66 79 1011.6
20260507014415 7 338 0.0 0.0 0.00 1.42 0.66 78 1011.4
20260507013921 7 337 0.0 0.0 0.00 1.42 0.66 79 1011.4
20260507013355 7 337 0.0 0.0 0.00 1.42 0.66 78 1011.4
20260507012900 7 337 0.0 0.0 0.00 1.45 0.66 78 1011.4
20260507012615 7 337 0.0 0.0 0.00 1.45 0.66 78 1011.4
20260507011852 7 337 0.0 0.0 0.00 1.45 0.66 77 1011.4
20260507011325 7 338 0.0 0.0 0.00 1.47 0.66 76 1011.5
20260507011020 7 338 0.0 0.0 0.00 1.50 0.66 76 1011.5
20260507010301 7 337 0.0 0.0 0.00 1.52 0.66 76 1011.5
20260507005727 7 337 0.0 0.0 0.00 1.52 0.66 76 1011.5
20260507005145 7 337 0.0 0.0 0.00 1.52 0.66 75 1011.4
20260507004603 7 337 0.0 0.0 0.00 1.55 0.66 75 1011.5
20260507004012 7 337 0.0 0.0 0.00 1.55 0.66 74 1011.4
20260507003453 7 337 0.0 0.0 0.00 1.55 0.66 74 1011.6
20260507002943 7 338 0.0 0.0 0.00 1.55 0.66 74 1011.5
20260507002425 7 338 0.0 0.0 0.00 1.55 0.66 74 1011.4
20260507001920 7 337 0.0 0.0 0.00 1.55 0.66 74 1011.3
20260507001347 7 337 0.0 0.0 0.00 1.55 0.66 73 1011.3
20260507000815 7 337 0.0 0.0 0.00 1.55 0.66 73 1011.3
20260507000249 8 338 0.0 0.0 0.00 1.55 0.66 74 1011.4
20260506235735 8 337 0.0 0.0 0.00 1.57 0.66 73 1011.4
20260506235215 8 337 0.0 0.0 0.00 1.57 0.66 73 1011.3
20260506234656 8 338 0.0 0.0 0.00 1.60 0.66 72 1011.3
20260506234144 8 337 0.0 0.0 0.00 1.60 0.66 72 1011.2
20260506233624 8 337 0.0 0.0 0.00 1.63 0.66 71 1011.2
20260506233336 8 337 0.0 0.0 0.00 1.65 0.66 72 1011.2
20260506232520 8 337 0.0 0.0 0.00 1.70 0.66 71 1011.3
20260506231941 8 337 0.0 0.0 0.00 1.85 0.66 70 1011.2
20260506231441 8 337 0.0 0.0 0.00 1.93 0.66 69 1011.2
20260506230940 8 337 0.0 0.0 0.00 1.93 0.66 69 1011.2
20260506230350 8 337 0.0 0.0 0.00 1.96 0.66 68 1011.1
20260506225800 8 337 0.0 0.0 0.00 2.01 0.66 70 1011.2
20260506225253 8 337 0.0 0.0 0.00 2.06 0.66 69 1011.1
20260506225011 8 337 0.0 0.0 0.00 2.11 0.66 70 1011.3
20260506224200 8 337 0.0 0.0 0.00 2.16 0.66 69 1011.2
20260506223627 8 337 0.0 0.0 0.00 2.18 0.66 70 1011.0
20260506223032 8 337 0.0 1.6 0.00 2.21 0.66 70 1011.1
20260506222506 8 337 0.0 3.2 0.00 2.24 0.66 69 1011.0
20260506221932 8 336 0.0 6.4 0.00 2.31 0.66 69 1011.0
20260506221409 9 336 0.0 6.4 0.00 2.36 0.66 69 1011.0
20260506220847 8 340 0.0 1.6 0.00 2.41 0.66 68 1011.0
20260506220334 9 340 0.0 3.2 0.00 2.46 0.66 68 1010.8
20260506215748 9 340 0.0 1.6 0.00 2.46 0.66 67 1010.7
20260506215202 9 340 0.0 3.2 0.00 2.46 0.66 67 1010.4
20260506214603 9 340 0.0 3.2 0.00 2.49 0.66 67 1010.5
20260506214042 9 340 0.0 4.8 0.00 2.57 0.66 68 1010.3
20260506213508 9 340 0.0 4.8 0.00 2.62 0.66 67 1010.4
20260506212918 9 16 1.6 4.8 0.00 2.69 0.66 67 1010.4
20260506212332 9 16 1.6 9.7 0.00 2.72 0.66 66 1010.4
20260506211808 9 17 1.6 9.7 0.00 2.77 0.66 66 1010.4
20260506211312 9 348 1.6 6.4 0.00 2.82 0.66 69 1010.4
20260506210748 9 348 1.6 6.4 0.00 2.82 0.66 67 1010.4
20260506210251 9 347 1.6 6.4 0.00 2.87 0.66 67 1010.4
20260506205710 9 346 1.6 6.4 0.00 2.95 0.66 67 1010.4
20260506205413 9 315 0.0 4.8 0.00 3.02 0.66 67 1010.4
20260506204651 9 313 0.0 3.2 0.00 3.05 0.66 67 1010.4
20260506204338 9 310 1.6 6.4 0.00 3.17 0.66 67 1010.3
20260506203819 9 344 1.6 6.4 0.00 3.23 0.66 69 1010.3
20260506203044 9 328 1.6 4.8 0.00 3.28 0.66 69 1010.4
20260506202519 9 327 0.0 4.8 0.00 3.33 0.66 69 1010.4
20260506202031 10 327 1.6 4.8 0.00 3.38 0.66 68 1010.3
20260506201454 10 327 1.6 4.8 0.00 3.40 0.66 66 1010.4
20260506201222 10 327 1.6 6.4 0.00 3.43 0.66 66 1010.4
20260506200441 10 327 3.2 8.0 0.00 3.45 0.66 67 1010.4
20260506195944 10 287 3.2 8.0 0.00 3.51 0.66 65 1010.4
20260506195408 10 287 3.2 8.0 0.00 3.56 0.66 64 1010.3
20260506195114 10 287 3.2 8.0 0.00 3.56 0.66 62 1010.3
20260506194358 10 286 3.2 6.4 0.00 3.58 0.66 62 1010.1
20260506193839 10 286 1.6 6.4 0.00 3.61 0.66 64 1010.3
20260506193333 10 341 1.6 6.4 0.00 3.61 0.66 65 1010.3
20260506192823 10 342 3.2 6.4 0.00 3.61 0.66 64 1010.3
20260506192246 10 344 1.6 9.7 0.00 3.63 0.66 66 1010.2
20260506191736 11 344 1.6 9.7 0.00 3.63 0.66 66 1010.2
20260506191236 10 306 1.6 6.4 0.00 3.63 0.66 68 1010.3
20260506190720 10 329 3.2 9.7 0.00 3.63 0.66 70 1010.3
20260506190212 10 328 3.2 14.5 0.00 3.63 0.66 67 1010.2
20260506185645 10 284 1.6 8.0 0.00 3.63 0.66 68 1010.5
20260506185107 10 293 1.6 8.0 0.00 3.63 0.66 68 1010.3
20260506184539 10 297 1.6 8.0 0.00 3.63 0.66 71 1010.3
20260506184031 10 280 1.6 9.7 0.00 3.63 0.66 68 1010.4
20260506183528 11 266 1.6 8.0 0.00 3.63 0.66 69 1010.4
20260506183248 10 304 3.2 8.0 0.00 3.63 0.66 72 1010.4
20260506182532 10 303 3.2 9.7 0.00 3.63 0.66 72 1010.2
20260506182255 11 355 3.2 16.1 0.00 3.63 0.66 71 1010.3
20260506181525 10 355 4.8 16.1 0.00 3.63 0.66 73 1010.5
20260506181012 10 188 3.2 11.3 0.00 3.63 0.66 74 1010.3
20260506180741 10 309 3.2 8.0 0.00 3.63 0.66 74 1010.2
20260506180010 10 297 3.2 8.0 0.00 3.63 0.66 75 1010.1
20260506175510 10 347 1.6 8.0 0.00 3.63 0.66 76 1010.0
20260506174936 10 281 3.2 11.3 0.00 3.63 0.66 78 1009.8
20260506174851 10 281 3.2 11.3 0.00 3.63 0.66 78 1009.7
20260506173920 10 321 1.6 8.0 0.00 3.63 0.66 78 1009.8
20260506173600 10 301 3.2 8.0 0.00 3.63 0.66 79 1010.0
20260506172835 10 355 3.2 9.7 0.00 3.63 0.66 79 1010.3
20260506172300 10 346 3.2 14.5 0.00 3.63 0.66 79 1010.2
20260506171757 10 261 3.2 14.5 0.00 3.63 0.66 79 1010.2
20260506171300 10 288 3.2 9.7 0.00 3.63 0.66 81 1010.0
20260506170753 10 321 1.6 8.0 0.00 3.63 0.66 81 1009.9
20260506170256 10 314 1.6 14.5 0.00 3.63 0.66 83 1009.8
20260506165947 9 262 3.2 14.5 0.00 3.63 0.66 84 1009.7
20260506165118 9 348 1.6 6.4 0.00 3.63 0.66 87 1009.6
20260506164622 8 355 4.8 11.3 0.00 3.63 0.66 86 1009.4
20260506164333 8 314 4.8 11.3 0.00 3.63 0.66 85 1009.4
20260506163610 8 310 3.2 9.7 0.00 3.63 0.66 86 1009.4
20260506163106 8 344 3.2 8.0 0.00 3.63 0.66 86 1009.5
20260506162606 9 346 4.8 9.7 0.00 3.63 0.66 85 1009.6
20260506162106 9 350 3.2 9.7 0.00 3.63 0.66 86 1009.4
20260506161610 9 286 3.2 8.0 0.00 3.63 0.66 86 1009.3
20260506161043 9 275 3.2 9.7 0.00 3.63 0.66 87 1009.3
20260506160510 9 334 1.6 9.7 0.00 3.63 0.66 87 1009.3
20260506160451 9 345 1.6 8.0 0.00 3.63 0.66 90 1009.2
20260506155507 8 342 3.2 8.0 0.00 3.63 0.66 89 1009.0
20260506154942 8 338 3.2 9.7 0.00 3.63 0.66 90 1009.0
20260506154414 8 321 1.6 9.7 0.00 3.63 0.66 90 1008.9
20260506153910 8 335 1.6 8.0 0.00 3.63 0.66 91 1008.7
20260506153640 8 307 3.2 8.0 0.00 3.63 0.66 93 1008.7
20260506152840 8 321 1.6 8.0 0.00 3.63 0.66 95 1008.5
20260506152306 8 313 0.0 6.4 0.00 3.63 0.66 100 1008.5
20260506151959 8 292 0.0 6.4 0.00 3.63 0.66 97 1008.5
20260506151227 8 296 0.0 4.8 0.00 3.63 0.66 98 1008.5
20260506150917 8 284 1.6 6.4 0.00 3.63 0.66 98 1008.3
20260506150350 8 288 1.6 6.4 0.00 3.63 0.66 99 1008.4
20260506145620 8 263 0.0 8.0 0.00 3.63 0.66 99 1008.2
20260506145124 8 338 1.6 8.0 0.00 3.63 0.66 99 1008.1
20260506144547 8 305 0.0 6.4 0.00 3.63 0.66 99 1008.0
20260506144450 8 305 0.0 4.8 0.00 3.63 0.66 99 1007.9
20260506143440 8 294 0.0 4.8 0.00 3.63 0.66 99 1007.9
20260506142915 8 290 0.0 0.0 0.00 3.63 0.66 99 1007.8
20260506142355 7 290 0.0 0.0 0.00 3.63 0.66 99 1007.8
20260506142039 7 290 0.0 0.0 0.00 3.63 0.66 99 1007.7
20260506141242 7 290 0.0 0.0 0.00 3.63 0.66 99 1007.7
20260506140705 7 290 0.0 0.0 0.00 3.63 0.66 99 1007.8
20260506140154 7 290 0.0 0.0 0.00 3.63 0.66 99 1007.7
20260506135654 7 290 0.0 0.0 0.00 3.63 0.66 99 1007.8
20260506135124 7 290 0.0 4.8 0.00 3.63 0.66 99 1007.8
20260506134540 7 290 0.0 4.8 0.00 3.63 0.66 99 1007.6
20260506134003 7 290 0.0 0.0 0.00 3.63 0.66 99 1007.4
20260506133450 7 290 0.0 0.0 0.00 3.63 0.66 99 1007.3
20260506132948 7 290 0.0 0.0 0.00 3.63 0.66 99 1007.3
20260506132445 7 290 0.0 0.0 0.00 3.63 0.66 99 1007.2
20260506131930 7 290 0.0 0.0 0.00 3.63 0.66 99 1007.0
20260506131430 7 290 0.0 0.0 0.00 3.63 0.66 99 1006.9
20260506131134 7 290 0.0 0.0 0.00 3.63 0.66 99 1006.8
20260506130326 7 290 0.0 0.0 0.00 3.63 0.66 99 1006.8
20260506125736 7 290 0.0 0.0 0.00 3.63 0.66 99 1006.4
20260506125211 7 290 0.0 0.0 0.00 3.63 0.66 99 1006.6
20260506124652 7 290 0.0 0.0 0.00 3.63 0.66 99 1006.6
20260506124143 7 290 0.0 0.0 0.00 3.63 0.66 99 1006.6
20260506123616 7 290 0.0 0.0 0.00 3.63 0.66 99 1006.6
20260506123058 7 290 0.0 0.0 0.00 3.63 0.66 99 1006.7
20260506122508 7 290 0.0 0.0 0.00 3.63 0.66 99 1006.8
20260506121927 7 290 0.0 0.0 0.00 3.63 0.66 99 1006.4
20260506121353 7 290 0.0 0.0 0.00 3.63 0.66 99 1006.5
20260506120852 7 290 0.0 0.0 0.00 3.63 0.66 99 1006.5
20260506120310 7 290 0.0 0.0 0.00 3.63 0.66 99 1006.3
20260506115714 7 290 0.0 0.0 0.00 3.63 0.66 99 1006.2
20260506115124 7 290 0.0 0.0 0.00 3.63 0.66 99 1006.2
20260506114535 7 290 0.0 0.0 0.00 3.63 0.66 99 1006.2
20260506114235 7 290 0.0 0.0 0.03 3.63 0.66 99 1005.9
20260506113505 7 290 0.0 0.0 0.03 3.63 0.66 99 1005.8
20260506112941 7 290 0.0 0.0 0.03 3.63 0.66 99 1005.8
20260506112439 7 290 0.0 0.0 0.03 3.63 0.66 99 1005.8
20260506111850 7 290 0.0 0.0 0.03 3.63 0.66 99 1005.4
20260506111319 7 290 0.0 0.0 0.03 3.63 0.66 99 1005.3
20260506111111 7 290 0.0 0.0 0.03 3.63 0.66 99 1005.2
20260506105712 7 290 0.0 0.0 0.03 3.63 0.66 99 1005.5
20260506105202 7 290 0.0 1.6 0.03 3.63 0.66 99 1005.4
20260506104655 6 290 0.0 1.6 0.03 3.63 0.66 99 1005.5
20260506104112 6 290 0.0 0.0 0.03 3.61 0.64 99 1005.3
20260506103516 6 290 0.0 0.0 0.05 3.61 0.64 99 1005.3
20260506102952 6 290 0.0 0.0 0.05 3.61 0.64 99 1004.9
20260506102446 6 290 0.0 0.0 0.08 3.61 0.64 99 1004.8
20260506101902 6 290 0.0 0.0 0.08 3.61 0.64 99 1004.6
20260506101311 6 290 0.0 0.0 0.08 3.61 0.64 99 1004.8
20260506100738 6 290 0.0 0.0 0.08 3.61 0.64 98 1004.8
20260506100159 7 290 0.0 0.0 0.08 3.61 0.64 98 1005.1
20260506095608 7 290 0.0 0.0 0.08 3.61 0.64 99 1004.9
20260506095028 7 290 0.0 0.0 0.08 3.61 0.64 99 1005.4
20260506093910 7 290 0.0 16.1 0.08 3.58 0.61 99 1005.5
20260506093559 7 304 0.0 0.0 0.08 3.56 0.58 99 1005.5
20260506092838 7 304 0.0 0.0 0.10 3.56 0.58 99 1005.2
20260506092307 7 304 0.0 0.0 0.10 3.53 0.56 99 1005.1
20260506091715 7 304 0.0 0.0 0.13 3.53 0.56 99 1005.0
20260506091149 7 304 0.0 0.0 0.15 3.53 0.56 99 1005.0
20260506090653 7 304 0.0 0.0 0.15 3.53 0.56 99 1004.9
20260506090058 7 304 0.0 0.0 0.18 3.53 0.56 99 1004.7
20260506085516 7 304 0.0 0.0 0.18 3.53 0.56 99 1004.4
20260506084935 7 304 0.0 0.0 0.20 3.53 0.56 98 1004.6
20260506084623 7 304 0.0 0.0 0.18 3.51 0.53 98 1004.8
20260506083908 7 304 0.0 0.0 0.20 3.51 0.53 98 1004.9
20260506083600 7 304 0.0 0.0 0.18 3.48 0.51 98 1005.1
20260506082759 7 304 0.0 0.0 0.18 3.45 0.48 98 1005.4
20260506082229 7 304 0.0 0.0 0.15 3.43 0.46 98 1005.4
20260506081703 7 304 0.0 0.0 0.13 3.40 0.43 98 1005.3
20260506081119 7 304 0.0 0.0 0.13 3.38 0.41 98 1005.2
20260506080755 7 304 0.0 0.0 0.13 3.38 0.41 98 1005.1
20260506073148 7 304 0.0 0.0 0.05 3.28 0.30 98 1004.8
20260506072825 7 304 0.0 0.0 0.05 3.28 0.30 98 1004.8
20260506072038 7 304 0.0 0.0 0.05 3.28 0.30 98 1004.8
20260506071459 7 304 0.0 0.0 0.05 3.28 0.30 98 1004.8
20260506070917 7 304 0.0 0.0 0.05 3.25 0.28 98 1004.8
20260506070548 7 304 0.0 0.0 0.05 3.25 0.28 98 1004.8
20260506062042 7 304 0.0 0.0 0.13 3.23 0.25 98 1004.9
20260506061946 7 304 0.0 0.0 0.13 3.23 0.25 98 1004.8
20260506061209 7 304 0.0 0.0 0.13 3.20 0.23 98 1004.9
20260506060427 7 304 0.0 0.0 0.13 3.20 0.23 98 1004.8
20260506060119 7 304 0.0 0.0 0.13 3.20 0.23 98 1004.8
20260506051016 7 304 0.0 0.0 0.08 3.07 0.10 98 1005.4
20260506050441 7 304 0.0 0.0 0.10 3.07 0.10 98 1005.5
20260506045127 8 304 0.0 0.0 0.13 3.07 0.10 98 1005.6
20260506044328 8 304 0.0 0.0 0.13 3.05 0.10 98 1005.7
20260506043751 8 304 0.0 0.0 0.13 3.07 0.08 98 1005.7
20260506043244 8 304 0.0 0.0 0.15 3.07 0.08 98 1005.8
20260506042713 8 304 0.0 0.0 0.18 3.07 0.08 98 1005.9
20260506042206 8 304 0.0 0.0 0.18 3.05 0.08 98 1006.1
20260506041710 8 304 0.0 0.0 0.20 3.05 0.05 98 1006.0
20260506041355 8 304 0.0 0.0 0.25 3.02 0.03 98 1006.1
20260506040600 8 304 0.0 0.0 0.25 3.00 0.03 98 1006.0
20260506040042 8 304 0.0 0.0 0.30 3.00 0.00 98 1005.9
20260506035537 8 304 0.0 0.0 0.36 3.00 3.00 98 1006.1
20260506034959 8 304 0.0 0.0 0.36 2.97 2.97 98 1006.2
20260506034655 8 304 0.0 0.0 0.36 2.95 2.97 98 1006.3
20260506033859 8 304 0.0 0.0 0.41 2.95 2.95 98 1006.3
20260506033342 8 304 0.0 0.0 0.41 2.92 2.92 98 1006.1
20260506032826 8 304 0.0 0.0 0.43 2.90 2.92 98 1006.1
20260506032320 8 304 0.0 0.0 0.46 2.90 2.90 98 1006.1
20260506031807 8 304 0.0 0.0 0.43 2.84 2.84 98 1006.0
20260506031255 8 304 0.0 0.0 0.43 2.79 2.79 98 1006.3
20260506030753 8 304 0.0 0.0 0.41 2.74 2.74 98 1006.0
20260506030253 8 304 0.0 0.0 0.41 2.72 2.72 98 1005.9
20260506025723 8 304 0.0 0.0 0.38 2.67 2.67 98 1005.9
20260506025151 8 304 0.0 0.0 0.36 2.62 2.62 98 1005.7
20260506024626 9 304 0.0 0.0 0.33 2.59 2.59 98 1005.7
20260506024313 9 304 0.0 0.0 0.33 2.57 2.57 98 1005.8
20260506023524 9 304 0.0 0.0 0.28 2.51 2.54 98 1005.8
20260506022951 9 304 0.0 0.0 0.28 2.49 2.49 98 1005.7
20260506022642 9 304 0.0 0.0 0.23 2.44 2.44 98 1005.9
20260506021845 9 304 0.0 0.0 0.23 2.44 2.44 98 1006.0
20260506021309 9 304 0.0 0.0 0.18 2.36 2.39 98 1006.0
20260506020739 9 304 0.0 0.0 0.18 2.34 2.34 98 1005.9
20260506020206 9 304 0.0 0.0 0.18 2.31 2.31 98 1005.9
20260506015858 9 304 0.0 0.0 0.15 2.29 2.29 98 1005.9